WA9NNN-10 Weather Reports


Display with metric or nautical units.
time (UTC)temp
F
wind
direction
speed
MPH
gust
MPH
rain 1hr
in
rain 24hr
in
rain mn
in
humidity
%
barometer
mb
20260506193136 59 314 3.0 5.0 0.00 0.00 0.00 35 1013.3
20260506192637 59 213 8.0 5.0 0.00 0.00 0.00 35 1013.4
20260506192137 59 221 9.0 4.0 0.00 0.00 0.00 35 1013.4
20260506191637 59 230 2.0 4.0 0.00 0.00 0.00 34 1013.3
20260506191137 59 233 4.0 4.0 0.00 0.00 0.00 36 1013.3
20260506190637 59 229 7.0 3.0 0.00 0.00 0.00 34 1013.4
20260506190137 59 238 4.0 2.0 0.00 0.00 0.00 36 1013.4
20260506185637 58 328 1.0 4.0 0.00 0.00 0.00 37 1013.4
20260506185137 58 285 1.0 4.0 0.00 0.00 0.00 36 1013.4
20260506184637 58 299 3.0 3.0 0.00 0.00 0.00 37 1013.4
20260506184137 58 223 1.0 4.0 0.00 0.00 0.00 36 1013.3
20260506183637 58 324 3.0 3.0 0.00 0.00 0.00 36 1013.4
20260506183137 59 279 2.0 4.0 0.00 0.00 0.00 35 1013.4
20260506182637 59 218 2.0 4.0 0.00 0.00 0.00 34 1013.3
20260506182137 59 237 3.0 4.0 0.00 0.00 0.00 34 1013.4
20260506181636 60 238 3.0 4.0 0.00 0.00 0.00 34 1013.3
20260506181137 60 298 4.0 5.0 0.00 0.00 0.00 34 1013.4
20260506180637 60 233 2.0 5.0 0.00 0.00 0.00 33 1013.3
20260506180137 60 252 7.0 4.0 0.00 0.00 0.00 33 1013.4
20260506175638 61 211 4.0 4.0 0.00 0.00 0.00 33 1013.4
20260506175137 61 335 4.0 5.0 0.00 0.00 0.00 32 1013.5
20260506174637 62 302 8.0 4.0 0.00 0.00 0.00 32 1013.5
20260506174137 62 311 9.0 4.0 0.00 0.00 0.00 33 1013.6
20260506173636 61 247 2.0 4.0 0.00 0.00 0.00 33 1013.6
20260506173137 61 229 8.0 4.0 0.00 0.00 0.00 32 1013.6
20260506172638 62 283 4.0 4.0 0.00 0.00 0.00 32 1013.5
20260506172137 62 260 2.0 4.0 0.00 0.00 0.00 32 1013.5
20260506171637 62 188 10.0 4.0 0.00 0.00 0.00 31 1013.6
20260506171137 63 262 3.0 4.0 0.00 0.00 0.00 31 1013.7
20260506170637 63 259 10.0 4.0 0.00 0.00 0.00 32 1013.7
20260506170137 63 214 3.0 5.0 0.00 0.00 0.00 31 1013.7
20260506165637 63 235 5.0 4.0 0.00 0.00 0.00 32 1013.6
20260506165137 61 300 5.0 4.0 0.00 0.00 0.00 32 1013.5
20260506164637 61 282 3.0 4.0 0.00 0.00 0.00 33 1013.6
20260506164137 61 264 5.0 4.0 0.00 0.00 0.00 32 1013.6
20260506163636 60 252 3.0 3.0 0.00 0.00 0.00 34 1013.5
20260506163137 59 214 6.0 4.0 0.00 0.00 0.00 34 1013.5
20260506162637 59 235 3.0 4.0 0.00 0.00 0.00 34 1013.6
20260506162137 59 1 2.0 3.0 0.00 0.00 0.00 35 1013.6
20260506161637 58 329 3.0 4.0 0.00 0.00 0.00 34 1013.6
20260506161137 58 307 2.0 5.0 0.00 0.00 0.00 34 1013.6
20260506160637 58 306 3.0 5.0 0.00 0.00 0.00 33 1013.5
20260506160138 59 259 4.0 4.0 0.00 0.00 0.00 33 1013.5
20260506155637 58 254 5.0 4.0 0.00 0.00 0.00 33 1013.6
20260506155137 57 278 5.0 3.0 0.00 0.00 0.00 34 1013.6
20260506154637 57 295 6.0 3.0 0.00 0.00 0.00 35 1013.6
20260506154137 57 0 0.0 3.0 0.00 0.00 0.00 35 1013.6
20260506153636 57 139 3.0 3.0 0.00 0.00 0.00 34 1013.6
20260506153137 57 255 1.0 3.0 0.00 0.00 0.00 34 1013.7
20260506152636 57 297 1.0 4.0 0.00 0.00 0.00 33 1013.7
20260506152137 57 272 5.0 4.0 0.00 0.00 0.00 34 1013.7
20260506151637 57 275 2.0 4.0 0.00 0.00 0.00 36 1013.8
20260506151137 56 355 5.0 5.0 0.00 0.00 0.00 36 1013.8
20260506150636 56 259 3.0 4.0 0.00 0.00 0.00 35 1013.7
20260506150137 56 309 4.0 3.0 0.00 0.00 0.00 34 1013.8
20260506145636 57 292 2.0 3.0 0.00 0.00 0.00 36 1013.8
20260506145137 57 263 4.0 3.0 0.00 0.00 0.00 36 1013.9
20260506144636 57 259 4.0 3.0 0.00 0.00 0.00 35 1013.9
20260506144137 57 279 2.0 3.0 0.00 0.00 0.00 37 1013.9
20260506143637 57 198 3.0 3.0 0.00 0.00 0.00 37 1013.8
20260506143137 56 154 3.0 2.0 0.00 0.00 0.00 37 1013.8
20260506142636 56 222 2.0 2.0 0.00 0.00 0.00 39 1013.9
20260506142137 55 255 1.0 1.0 0.00 0.00 0.00 40 1013.9
20260506141636 55 200 1.0 1.0 0.00 0.00 0.00 41 1013.8
20260506141137 55 201 2.0 2.0 0.00 0.00 0.00 40 1013.8
20260506140637 54 257 1.0 2.0 0.00 0.00 0.00 41 1013.8
20260506140137 54 222 1.0 2.0 0.00 0.00 0.00 41 1013.7
20260506135636 54 0 0.0 1.0 0.00 0.02 0.00 43 1013.7
20260506135138 53 243 1.0 1.0 0.00 0.02 0.00 43 1013.5
20260506134636 53 326 1.0 1.0 0.00 0.02 0.00 45 1013.4
20260506134137 53 214 2.0 1.0 0.00 0.02 0.00 47 1013.4
20260506133637 52 158 1.0 1.0 0.00 0.02 0.00 47 1013.3
20260506133137 52 168 1.0 1.0 0.00 0.02 0.00 48 1013.3
20260506132636 52 169 1.0 1.0 0.00 0.02 0.00 48 1013.2
20260506132137 51 168 1.0 1.0 0.00 0.02 0.00 51 1013.2
20260506131637 51 69 1.0 0.0 0.00 0.02 0.00 53 1013.3
20260506131137 50 69 1.0 0.0 0.00 0.02 0.00 54 1013.3
20260506130636 50 0 0.0 0.0 0.00 0.02 0.00 55 1013.1
20260506130137 49 69 2.0 0.0 0.00 0.02 0.00 57 1013.1
20260506125636 49 0 0.0 0.0 0.00 0.08 0.00 57 1013.1
20260506125137 49 0 0.0 1.0 0.00 0.08 0.00 57 1013.0
20260506124636 48 49 1.0 1.0 0.00 0.08 0.00 59 1013.0
20260506124137 48 0 0.0 1.0 0.00 0.08 0.00 60 1012.9
20260506123636 48 0 0.0 0.0 0.00 0.08 0.00 61 1012.9
20260506123137 48 0 0.0 0.0 0.00 0.08 0.00 61 1012.8
20260506122636 48 0 0.0 1.0 0.00 0.08 0.00 61 1012.7
20260506122137 47 349 2.0 1.0 0.00 0.08 0.00 62 1012.7
20260506121637 47 349 1.0 1.0 0.00 0.08 0.00 63 1012.7
20260506121137 47 349 1.0 1.0 0.00 0.08 0.00 63 1012.7
20260506120636 47 349 1.0 1.0 0.00 0.08 0.00 64 1012.7
20260506120137 46 64 2.0 1.0 0.00 0.08 0.00 65 1012.7
20260506115636 46 64 1.0 1.0 0.00 0.08 0.00 66 1012.7
20260506115137 46 0 0.0 1.0 0.00 0.08 0.00 66 1012.6
20260506114636 45 64 1.0 0.0 0.00 0.08 0.00 67 1012.5
20260506114137 45 64 1.0 0.0 0.00 0.08 0.00 67 1012.4
20260506113636 45 0 0.0 0.0 0.00 0.08 0.00 67 1012.3
20260506113137 45 0 0.0 0.0 0.00 0.08 0.00 67 1012.3
20260506112636 44 0 0.0 0.0 0.00 0.08 0.00 66 1012.3
20260506112138 44 64 2.0 0.0 0.00 0.08 0.00 65 1012.4
20260506111637 44 0 0.0 0.0 0.00 0.08 0.00 65 1012.3
20260506111137 44 0 0.0 0.0 0.00 0.08 0.00 64 1012.3
20260506110636 44 0 0.0 0.0 0.00 0.08 0.00 64 1012.2
20260506110137 44 0 0.0 0.0 0.00 0.08 0.00 63 1012.2
20260506105636 44 0 0.0 0.0 0.00 0.08 0.00 63 1012.1
20260506105137 44 0 0.0 0.0 0.00 0.08 0.00 61 1012.0
20260506104636 45 64 1.0 0.0 0.00 0.08 0.00 60 1011.9
20260506104137 45 0 0.0 0.0 0.00 0.08 0.00 60 1011.7
20260506103636 45 0 0.0 0.0 0.00 0.08 0.00 60 1011.7
20260506103137 45 0 0.0 0.0 0.00 0.08 0.00 60 1011.5
20260506102636 46 0 0.0 0.0 0.00 0.08 0.00 60 1011.5
20260506102137 46 0 0.0 0.0 0.00 0.08 0.00 60 1011.4
20260506101636 46 0 0.0 0.0 0.00 0.08 0.00 60 1011.4
20260506101136 46 0 0.0 1.0 0.00 0.08 0.00 60 1011.4
20260506100636 46 0 0.0 1.0 0.00 0.08 0.00 59 1011.6
20260506100137 46 0 0.0 1.0 0.00 0.08 0.00 59 1011.5
20260506095636 46 75 4.0 1.0 0.00 0.08 0.00 58 1011.4
20260506095136 46 0 0.0 1.0 0.00 0.08 0.00 58 1011.4
20260506094636 46 1 2.0 1.0 0.00 0.08 0.00 58 1011.5
20260506094136 46 5 1.0 2.0 0.00 0.08 0.00 58 1011.6
20260506093636 47 359 1.0 1.0 0.00 0.08 0.00 58 1011.5
20260506093137 47 3 3.0 1.0 0.00 0.08 0.00 58 1011.4
20260506092636 47 21 2.0 1.0 0.00 0.08 0.00 58 1011.4
20260506092137 46 46 1.0 1.0 0.00 0.08 0.00 58 1011.3
20260506091636 46 1 1.0 1.0 0.00 0.08 0.00 58 1011.6
20260506091137 46 1 2.0 1.0 0.00 0.08 0.00 58 1011.6
20260506090637 46 0 0.0 1.0 0.00 0.08 0.00 57 1011.7
20260506090138 46 0 0.0 1.0 0.00 0.08 0.00 57 1011.9
20260506085636 46 360 2.0 1.0 0.00 0.08 0.00 57 1011.6
20260506085136 47 56 2.0 1.0 0.00 0.08 0.00 57 1011.4
20260506084636 47 46 1.0 1.0 0.00 0.08 0.00 56 1011.4
20260506084136 47 43 1.0 1.0 0.00 0.08 0.00 56 1011.3
20260506083636 47 45 2.0 1.0 0.00 0.08 0.00 56 1011.4
20260506083136 47 24 2.0 1.0 0.00 0.08 0.00 55 1011.2
20260506082636 47 13 1.0 1.0 0.00 0.08 0.00 55 1011.3
20260506082137 47 359 1.0 2.0 0.00 0.08 0.00 54 1011.4
20260506081636 47 51 2.0 2.0 0.00 0.08 0.00 54 1011.3
20260506081137 47 34 2.0 2.0 0.00 0.08 0.00 54 1011.2
20260506080636 47 59 3.0 2.0 0.00 0.08 0.00 54 1011.1
20260506080136 47 53 1.0 2.0 0.00 0.08 0.00 53 1011.1
20260506073136 48 45 2.0 3.0 0.00 0.08 0.00 55 1010.9
20260506072636 48 30 2.0 3.0 0.00 0.08 0.00 55 1010.8
20260506072137 48 359 3.0 3.0 0.00 0.08 0.00 55 1010.8
20260506071636 48 69 2.0 3.0 0.00 0.08 0.00 54 1010.8
20260506071137 48 22 2.0 3.0 0.00 0.08 0.00 54 1010.8
20260506070636 48 357 7.0 4.0 0.00 0.08 0.00 54 1010.6
20260506070136 48 77 5.0 5.0 0.00 0.08 0.00 53 1010.6
20260506062136 50 74 5.0 4.0 0.00 0.08 0.00 51 1010.9
20260506061636 50 63 2.0 3.0 0.00 0.08 0.00 51 1010.9
20260506061136 50 29 2.0 3.0 0.00 0.08 0.00 51 1010.9
20260506060636 50 1 3.0 3.0 0.00 0.08 0.00 50 1011.1
20260506060137 50 329 2.0 4.0 0.00 0.08 0.00 50 1011.0
20260506051136 53 47 2.0 2.0 0.00 0.08 0.00 45 1010.1
20260506050636 53 0 0.0 2.0 0.00 0.08 0.00 45 1009.9
20260506050136 53 0 0.0 2.0 0.00 0.08 0.00 45 1010.0
20260506044636 53 18 2.0 2.0 0.00 0.08 0.08 46 1010.0
20260506044136 53 90 3.0 2.0 0.00 0.08 0.08 46 1010.3
20260506043636 53 357 2.0 2.0 0.00 0.08 0.08 47 1010.1
20260506043136 53 359 2.0 3.0 0.00 0.08 0.08 46 1010.2
20260506042636 54 343 2.0 3.0 0.00 0.08 0.08 45 1010.2
20260506042136 54 79 3.0 3.0 0.00 0.08 0.08 44 1010.2
20260506041636 54 360 1.0 3.0 0.00 0.08 0.08 43 1010.3
20260506041136 54 322 2.0 4.0 0.00 0.08 0.08 43 1010.1
20260506040637 54 350 3.0 3.0 0.00 0.08 0.08 43 1010.3
20260506040138 54 351 2.0 3.0 0.00 0.08 0.08 43 1010.0
20260506035637 54 330 2.0 3.0 0.00 0.08 0.08 43 1009.8
20260506035137 54 348 3.0 3.0 0.00 0.08 0.08 43 1009.9
20260506034637 54 308 2.0 2.0 0.00 0.08 0.08 43 1009.9
20260506034138 54 344 2.0 2.0 0.00 0.08 0.08 44 1009.9
20260506033637 54 0 0.0 2.0 0.00 0.08 0.08 44 1009.8
20260506033137 54 302 2.0 2.0 0.00 0.08 0.08 43 1009.6
20260506032637 54 290 1.0 2.0 0.00 0.08 0.08 43 1009.4
20260506032137 54 346 2.0 2.0 0.00 0.08 0.08 43 1009.4
20260506031637 54 324 3.0 3.0 0.00 0.08 0.08 43 1009.5
20260506031137 55 314 3.0 2.0 0.00 0.08 0.08 43 1009.4
20260506030637 54 303 2.0 2.0 0.00 0.08 0.08 43 1009.3
20260506030137 55 278 3.0 2.0 0.00 0.08 0.08 43 1009.3
20260506025637 55 297 1.0 2.0 0.00 0.08 0.08 42 1009.6
20260506025137 55 311 2.0 2.0 0.00 0.08 0.08 42 1009.5
20260506024637 55 321 2.0 2.0 0.00 0.08 0.08 42 1009.6
20260506024137 55 314 1.0 1.0 0.00 0.08 0.08 42 1009.6
20260506023636 55 283 1.0 1.0 0.00 0.08 0.08 42 1009.4
20260506023137 55 316 1.0 1.0 0.00 0.08 0.08 42 1009.3
20260506022637 55 308 1.0 1.0 0.00 0.08 0.08 42 1009.2
20260506022137 55 313 1.0 2.0 0.00 0.08 0.08 42 1009.3
20260506021637 55 283 2.0 2.0 0.00 0.08 0.08 41 1009.2
20260506021137 55 307 2.0 1.0 0.00 0.08 0.08 41 1009.1
20260506020637 55 0 0.0 2.0 0.00 0.08 0.08 41 1009.1
20260506020137 55 295 1.0 2.0 0.00 0.08 0.08 41 1008.8
20260506015637 55 322 3.0 2.0 0.00 0.08 0.08 40 1008.9
20260506015138 55 304 2.0 2.0 0.00 0.08 0.08 40 1009.0
20260506014637 55 311 1.0 2.0 0.00 0.08 0.08 40 1008.8
20260506014137 56 292 1.0 2.0 0.00 0.08 0.08 40 1009.0
20260506013638 56 283 3.0 2.0 0.00 0.08 0.08 39 1008.7
20260506013138 56 323 2.0 3.0 0.00 0.08 0.08 39 1008.5
20260506012637 56 300 2.0 3.0 0.00 0.08 0.08 39 1008.5
20260506012137 56 300 2.0 2.0 0.00 0.08 0.08 38 1008.5
20260506011637 56 299 1.0 2.0 0.00 0.08 0.08 38 1008.5
20260506011137 56 297 3.0 3.0 0.00 0.08 0.08 38 1008.3
20260506010637 56 359 1.0 2.0 0.00 0.08 0.08 38 1008.2
20260506010138 56 280 3.0 2.0 0.00 0.08 0.08 38 1008.2
20260506005637 56 273 2.0 3.0 0.00 0.08 0.08 38 1008.3
20260506005137 56 313 1.0 3.0 0.00 0.08 0.08 38 1008.1
20260506004636 56 299 2.0 3.0 0.00 0.08 0.08 37 1008.3
20260506004137 56 269 4.0 3.0 0.00 0.08 0.08 37 1008.1
20260506003636 56 271 1.0 3.0 0.00 0.08 0.08 37 1008.2
20260506003137 56 285 3.0 3.0 0.00 0.08 0.08 37 1008.1
20260506002637 56 290 2.0 3.0 0.00 0.08 0.08 37 1008.0
20260506002137 56 297 3.0 3.0 0.00 0.08 0.08 37 1008.1
20260506001636 56 283 3.0 3.0 0.00 0.08 0.08 37 1008.2
20260506001137 56 305 2.0 3.0 0.00 0.08 0.08 38 1008.1
20260506000636 56 347 2.0 3.0 0.00 0.08 0.08 37 1008.0
20260506000137 56 326 4.0 3.0 0.00 0.08 0.08 37 1008.0
20260505235636 57 347 2.0 3.0 0.00 0.34 0.08 37 1008.1
20260505235137 57 1 4.0 3.0 0.00 0.34 0.08 36 1008.1
20260505234637 57 339 1.0 4.0 0.00 0.34 0.08 36 1008.1
20260505234137 57 273 4.0 4.0 0.00 0.34 0.08 36 1008.2
20260505233636 57 305 3.0 4.0 0.00 0.34 0.08 36 1008.2
20260505233137 57 271 4.0 4.0 0.00 0.34 0.08 35 1008.2
20260505232637 57 271 4.0 4.0 0.00 0.34 0.08 35 1008.2
20260505232137 57 292 4.0 4.0 0.00 0.34 0.08 35 1008.2
20260505231637 57 334 5.0 4.0 0.00 0.34 0.08 35 1008.2
20260505231137 58 308 8.0 4.0 0.00 0.34 0.08 34 1008.2
20260505230636 58 255 3.0 4.0 0.00 0.34 0.08 34 1008.2
20260505230137 58 319 8.0 3.0 0.00 0.34 0.08 35 1008.3
20260505225636 58 287 4.0 3.0 0.00 0.34 0.08 34 1008.3
20260505225137 58 346 3.0 4.0 0.00 0.34 0.08 34 1008.3
20260505224636 58 277 3.0 3.0 0.00 0.34 0.08 34 1008.4
20260505224137 58 293 3.0 4.0 0.00 0.34 0.08 34 1008.3
20260505223636 58 292 3.0 3.0 0.00 0.34 0.08 33 1008.3
20260505223137 58 231 2.0 2.0 0.00 0.34 0.08 35 1008.3
20260505222636 58 0 0.0 3.0 0.00 0.34 0.08 35 1008.2
20260505222137 58 0 0.0 4.0 0.00 0.34 0.08 34 1008.3
20260505221636 58 279 3.0 4.0 0.00 0.34 0.08 34 1008.3
20260505221137 58 302 5.0 4.0 0.00 0.34 0.08 34 1008.3
20260505220637 58 246 1.0 4.0 0.00 0.34 0.08 34 1008.4
20260505220137 58 307 2.0 3.0 0.00 0.34 0.08 33 1008.5
20260505215636 58 296 4.0 3.0 0.00 0.34 0.08 34 1008.5
20260505215137 58 0 0.0 3.0 0.00 0.34 0.08 32 1008.4
20260505214636 59 317 3.0 4.0 0.00 0.34 0.08 32 1008.3
20260505214137 59 278 1.0 4.0 0.00 0.34 0.08 32 1008.4
20260505213637 59 261 4.0 3.0 0.00 0.34 0.08 32 1008.4
20260505213138 59 239 7.0 3.0 0.00 0.34 0.08 33 1008.4
20260505212636 59 268 2.0 3.0 0.00 0.34 0.08 33 1008.4
20260505212137 59 247 4.0 4.0 0.00 0.34 0.08 32 1008.4
20260505211637 59 309 2.0 3.0 0.00 0.34 0.08 32 1008.4
20260505211137 59 210 5.0 3.0 0.00 0.34 0.08 32 1008.3
20260505210636 59 251 6.0 3.0 0.00 0.34 0.08 32 1008.4
20260505210137 59 245 1.0 3.0 0.00 0.34 0.08 33 1008.3
20260505205636 59 220 2.0 2.0 0.00 0.34 0.08 34 1008.4
20260505205137 58 300 1.0 2.0 0.00 0.34 0.08 34 1008.4
20260505204636 58 269 2.0 3.0 0.00 0.34 0.08 34 1008.5
20260505204137 58 277 3.0 3.0 0.00 0.34 0.08 33 1008.4
20260505203636 58 256 2.0 3.0 0.00 0.34 0.08 33 1008.6
20260505203137 58 319 5.0 3.0 0.00 0.34 0.08 34 1008.8
20260505202636 58 304 3.0 3.0 0.00 0.34 0.08 34 1008.7
20260505202137 58 330 4.0 3.0 0.00 0.34 0.08 33 1008.7
20260505201637 58 258 2.0 2.0 0.00 0.34 0.08 33 1008.7
20260505201137 58 236 1.0 3.0 0.00 0.34 0.08 33 1008.8
20260505200637 58 263 2.0 4.0 0.00 0.34 0.08 33 1008.8
20260505200137 58 311 4.0 4.0 0.00 0.34 0.08 32 1008.7
20260505195636 59 229 2.0 4.0 0.00 0.34 0.08 32 1008.6
20260505195137 59 235 5.0 4.0 0.00 0.34 0.08 31 1008.6
20260505194636 60 287 6.0 3.0 0.00 0.34 0.08 32 1008.7
20260505194137 60 250 3.0 3.0 0.00 0.34 0.08 34 1008.7
20260505193636 60 276 2.0 3.0 0.00 0.34 0.08 35 1008.9